Yuma, AZ

3:07 PM MST on January 17, 2017 (GMT -0700)
Yuma Marine Corps Air Station

Weather History for KNYL - September, 2011

Change the Weather History Date:

Wednesday, September 28, 2011

  Actual Average Record
Temperature  
Mean Temperature 87 °F 85 °F  
Max Temperature 99 °F 97 °F 108 °F (1963)
Min Temperature 74 °F 72 °F 54 °F (1936)
Degree Days  
Heating Degree Days 0 0  
Month to date heating degree days 0 0  
Since 1 July heating degree days 0 0  
Cooling Degree Days 22 20  
Month to date cooling degree days 722 684  
Year to date cooling degree days 4164 4137  
Growing Degree Days 36 (Base 50)    
Moisture  
Dew Point 51 °F    
Average Humidity 34    
Maximum Humidity 51    
Minimum Humidity 17    
Precipitation  
Precipitation 0.00 in 0.01 in 0.28 in (1905)
Month to date precipitation 0.58 0.50  
Year to date precipitation 1.41 2.59  
Sea Level Pressure  
Sea Level Pressure 29.88 in    
Wind  
Wind Speed 5 mph (SSW)    
Max Wind Speed 14 mph    
Max Gust Speed 17 mph    
Visibility 10 miles    
Events      
T = Trace of Precipitation, MM = Missing Value Source: NWS Daily Summary

Daily Weather History Graph

Daily Weather History Graph

Search for Another Location

Airport or City:

Trip Planner

Search our weather history database for the weather conditions in past years. The results will help you decide how hot, cold, wet, or windy it might be!

Date:

Astronomy

Sep. 28, 2011 Rise Set
Actual Time 6:30 AM MST 6:27 PM MST
Civil Twilight 6:05 AM MST 6:51 PM MST
Nautical Twilight 5:37 AM MST 7:20 PM MST
Astronomical Twilight 5:08 AM MST 7:49 PM MST
Moon 7:55 AM MST (9/28) 7:10 PM MST (9/28)
Length of Visible Light 12h 45m
Length of Day
11h 56m
Waxing Crescent, 3% of the Moon is Illuminated
Sep 28
Waxing Crescent
Oct 3
First Quarter
Oct 11
Full
Oct 19
Last Quarter
Oct 26
New

Hourly Weather History & Observations

Time (MST) Temp. Heat Index Dew Point Humidity Pressure Visibility Wind Dir Wind Speed Gust Speed Precip Events Conditions
12:55 AM 82.0 °F - 48.0 °F 30% 29.88 in 10.0 mi SSE 6.9 mph - N/A   Clear
1:55 AM 80.1 °F - 48.0 °F 32% 29.87 in 10.0 mi SSE 4.6 mph - N/A   Clear
2:28 AM - - - N/A% - - North - - N/A   Unknown
2:55 AM 79.0 °F - 48.0 °F 34% 29.87 in 10.0 mi Calm Calm - N/A   Clear
3:55 AM 79.0 °F - 48.0 °F 34% 29.88 in 10.0 mi Calm Calm - N/A   Clear
4:55 AM 75.9 °F - 48.0 °F 37% 29.88 in 10.0 mi Calm Calm - N/A   Clear
5:55 AM 75.0 °F - 50.0 °F 41% 29.89 in 10.0 mi South 3.5 mph - N/A   Clear
6:55 AM 73.9 °F - 52.0 °F 46% 29.91 in 10.0 mi Calm Calm - N/A   Clear
7:55 AM 79.0 °F - 57.0 °F 47% 29.92 in 10.0 mi South 5.8 mph - N/A   Clear
8:55 AM 82.0 °F 83.1 °F 63.0 °F 52% 29.94 in 10.0 mi South 3.5 mph - N/A   Clear
9:55 AM 86.0 °F 87.6 °F 64.9 °F 49% 29.95 in 10.0 mi SW 6.9 mph - N/A   Clear
10:55 AM 89.1 °F 89.0 °F 61.0 °F 39% 29.94 in 10.0 mi SSW 8.1 mph - N/A   Clear
11:55 AM 93.0 °F 90.8 °F 54.0 °F 27% 29.92 in 10.0 mi SSW 6.9 mph - N/A   Clear
12:55 PM 96.1 °F - 44.1 °F 17% 29.90 in 10.0 mi SSW 9.2 mph - N/A   Clear
1:55 PM 98.1 °F - 46.0 °F 17% 29.87 in 10.0 mi Variable 3.5 mph - N/A   Clear
2:00 PM - - - N/A% - - North - - N/A   Unknown
2:55 PM 98.1 °F - 51.1 °F 20% 29.86 in 10.0 mi SSW 6.9 mph - N/A   Clear
3:55 PM 98.1 °F - 50.0 °F 20% 29.83 in 10.0 mi South 9.2 mph - N/A   Clear
4:55 PM 98.1 °F - 48.0 °F 18% 29.82 in 10.0 mi SSW 10.4 mph - N/A   Clear
5:55 PM 97.0 °F - 46.9 °F 18% 29.83 in 10.0 mi WSW 5.8 mph - N/A   Clear
6:55 PM 93.0 °F - 50.0 °F 23% 29.83 in 10.0 mi WSW 5.8 mph - N/A   Clear
7:55 PM 89.1 °F - 48.9 °F 25% 29.85 in 10.0 mi WSW 5.8 mph - N/A   Clear
8:55 PM 88.0 °F - 46.9 °F 24% 29.86 in 10.0 mi SW 4.6 mph - N/A   Clear
9:55 PM 84.9 °F - 45.0 °F 25% 29.88 in 10.0 mi Calm Calm - N/A   Clear
10:55 PM 82.9 °F - 45.0 °F 26% 29.88 in 10.0 mi South 3.5 mph - N/A   Clear
11:55 PM 81.0 °F - 48.9 °F 33% 29.87 in 10.0 mi South 3.5 mph - N/A   Clear